Skip Page Navigation
NASA JPL Caltech
NASA Logo - Jet Propulsion Laboratory + View the NASA Portal
+ Center for Near-Earth Object Studies
JPL Home Earth Solar System Stars & Galaxies Technology
JPL Solar System Dynamics
BODIES ORBITS EPHEMERIDES TOOLS PHYSICAL DATA DISCOVERY FAQ SITE MAP
JPL Small-Body Database Browser
Search: [ help ]  
17881 Radmall (1999 CA51)
Classification: Main-belt Asteroid          SPK-ID: 2017881
Ephemeris | Orbit Diagram | Orbital Elements | Mission Design | Physical Parameters | Discovery Circumstances | Close-Approach Data ]

[ show orbit diagram ]
Orbital Elements at Epoch 2459200.5 (2020-Dec-17.0) TDB
Reference: JPL 34 (heliocentric ecliptic J2000)
 Element Value Uncertainty (1-sigma)   Units 
e .1518696624885503 2.7786e-08  
a 2.269212198287557 7.364e-09 au
q 1.924587707618724 6.202e-08 au
i 3.067412123478861 3.3076e-06 deg
node 131.7869974231413 6.2731e-05 deg
peri 121.135330920112 6.3925e-05 deg
M 58.09380661173643 1.176e-05 deg
tp 2458999.016992447021
(2020-May-29.51699245)
4.0858e-05 TDB
period 1248.564811802479
3.42
6.0777e-06
1.664e-08
d
yr
n .2883310474530268 1.4035e-09 deg/d
Q 2.613836688956389 8.4824e-09 au
  Orbit Determination Parameters
   # obs. used (total)      1754  
   data-arc span      10911 days (29.87 yr)  
   first obs. used      1990-10-21  
   last obs. used      2020-09-04  
   planetary ephem.      DE441  
   SB-pert. ephem.      SB441-N16  
   condition code      0  
   norm. resid. RMS      .49778  
   source      ORB  
   producer      Otto Matic  
   solution date      2021-Apr-13 02:17:03  

Additional Information
 Earth MOID = .910598 au 
 Jupiter MOID = 2.42377 au 
 T_jup = 3.597 
[ show covariance matrix ]

Ephemeris | Orbit Diagram | Orbital Elements | Mission Design | Physical Parameters | Discovery Circumstances | Close-Approach Data ]

Physical Parameter Table
Parameter Symbol Value Units Sigma Reference Notes
absolute magnitude H 14.94   n/a E2021B10  
diameter diameter 5.973 km 0.054 urn:nasa:pds:neowise_diameters_albedos::2.0[mainbelt] (http://adsabs.harvard.edu/abs/2011ApJ...741...68M)  
geometric albedo albedo 0.064   0.005 urn:nasa:pds:neowise_diameters_albedos::2.0[mainbelt] (http://adsabs.harvard.edu/abs/2011ApJ...741...68M)  

17881 Radmall           Discovered 1999 Feb. 10 by the Lincoln Laboratory Near-Earth Asteroid Research Team at Socorro.
Nelson Bret Radmall (b. 1984) was awarded third place in the 2003 Intel International Science and Engineering Fair for his botany team project. He attends the Pleasant Grove High School, Pleasant Grove, Utah, U.S.A.
NOTE: some special characters may not display properly (any characters within {} are an attempt to place the proper accent above a character)
Reference: 20040614/MPCPages.arcLast Updated: 2009-12-11

[ show close-approach data ]
Alternate Designations
 1999 CA51 = 2000 QS61 
Ephemeris | Orbit Diagram | Orbital Elements | Mission Design | Physical Parameters | Discovery Circumstances | Close-Approach Data ]
ABOUT SSD CREDITS/AWARDS PRIVACY/COPYRIGHT GLOSSARY LINKS
FirstGov 2021-Apr-15 03:05 UT
(server date/time)  
NASA Home Page
Site Manager:   Ryan S. Park
Webmaster  Alan B. Chamberlin